Showing default

VSP RF A1, 59135

Orbit data source: Space-Track

VSP RF A1, 59135 is a payload satellite owned by Aerospacelab (BE) in SSO that was launched on Mon, 04 Mar 2024 UTC via an FALCON 9 launch vehicle from the Air Force Western Test Range (AFWTR). Payload-class satellites include a variety of spacecraft equipped with specific instruments for various scientific and technological missions. These include communications satellites like Starlink; space stations such as the ISS; scientific satellites like the Hubble; Earth observation satellites from companies like Planet Labs, Umbra, and HawkEye 360; GPS; miniature CubeSats for education and research; and military/defense satellites.

Loading next visibility...
Identifier
59135, 2024-043AP
Orbit
SSO
Country
Flag of BEBE / BEL
Related business
Manufacturer
Aerospacelab
Mission
Operational Amateur Technology
Bus & Motor
AEROSP, Unknown motor
Mass
~200 kg wet, ~200 kg dry
Launch date (UTC)
2024-03-04 (2 years ago)
Launch vehicle
FALCON 9
Launch site
Air Force Western Test Range (AFWTR)
Object type
Payload
Rocket body
Debris
Shape & HBR
Box, 0.1 m
Radar Cross Section
0.800 m², Medium (>0.1 m² and < 1m²)

Expand to show TLE details & history
Last TLE update: 10 hours ago

TLE from 10 hours ago
0 VSP RF A1
1 59135U 24043AP  25258.31891434  .00006701  00000-0  26543-3 0  9998
2 59135  97.5293  27.2648 0012596 124.8598 235.3826 15.25686089 85056
Epoch: 2025-09-15T07:39Z
TLE epoch observation values (Epoch: 2025-09-15T07:39:14.198Z)
Latitude
-0.00007°
Longitude
-82.06963°
Altitude
496.743 km
Speed
7.614 km/s
True Right ascension
01h 49m 03s
True Declination
0° 00' 00"
Sunlit
Object was in full shadow at epoch
Visualization orbit readout
Latitude
Unknown
Longitude
Unknown
Altitude
Unknown
Speed
Unknown
Apparent Right ascension
Unknown
Apparent Declination
Unknown
Sunlit
N/A
Visualization observer readout
Local Sidereal Time
10:46:09
Azimuth
Unknown
Elevation
Unknown
Doppler factor
Unknown
Orbital elements
Apogee altitude
494.335 km
Perigee altitude
477.044 km
Semi-major axis
6,863.827 km
Eccentricity
0.00126
Inclination
97.5293°
RAAN
27.2648°
Arg. of periapsis
124.8598°
True anomaly
235.26392°
Mean anomaly
235.3826°
Eccentric anomaly
235.32325°
Mean motion
3.81675 °/min
Orbital period
94.32 mins
BSTAR
0.00026543
Loading maneuver chart data...
Computing Atmospheric mass density...
Loading historical data...
Loading historical data...
Loading historical data...
Loading historical data...
Loading historical data...
Loading historical data...
Loading historical data...

Documentation

Showing up to 5 results
|